Location: Zagreb
(45.8000°N, 16.0000°E)
Time: 02:32:04
(UTC+01:00)

ISS - Visible Passes

Search period start: 24 January 2018 00:00
Search period end: 03 February 2018 00:00
Orbit: 402 x 407 km, 51.6° (Epoch: 24 January)

Date Brightness Start Highest point End Pass type
(mag) Time Alt. Az. Time Alt. Az. Time Alt. Az.
24 Jan -1.2 19:02:51 10° SSW 19:03:26 14° SSW 19:03:26 14° SSW visible
25 Jan -1.8 18:11:31 10° S 18:13:32 15° SE 18:13:40 15° SE visible
26 Jan -2.9 18:54:08 10° SW 18:56:29 40° SSW 18:56:29 40° SSW visible
27 Jan -2.8 18:02:09 10° SSW 18:05:06 32° SE 18:06:32 22° E visible
27 Jan -0.8 19:38:18 10° W 19:39:12 17° W 19:39:12 17° W visible
28 Jan -3.9 18:45:50 10° WSW 18:49:05 73° NNW 18:49:10 73° N visible
29 Jan -3.8 17:53:29 10° SW 17:56:44 68° SSE 17:59:04 17° ENE visible
29 Jan -1.2 19:30:22 10° W 19:31:44 20° WNW 19:31:44 20° WNW visible
30 Jan -3.1 18:37:45 10° W 18:40:54 43° NNW 18:41:34 37° NNE visible
31 Jan -3.6 17:45:12 10° WSW 17:48:26 63° NNW 17:51:21 12° ENE visible
31 Jan -1.5 19:22:25 10° WNW 19:24:01 21° NW 19:24:01 21° NW visible
01 Feb -2.6 18:29:46 10° WNW 18:32:45 32° N 18:33:46 26° NNE visible
02 Feb -2.9 17:37:07 10° W 17:40:12 39° NNW 17:43:19 10° NE visible
02 Feb -1.8 19:14:19 10° WNW 19:16:09 23° NNW 19:16:09 23° NNW visible
